Regional Weather Roundup
Issued by NWS Charleston, SC

Current Version | Previous Version | Text Only | Print | Product List | Glossary Off
Versions: 1 2 3 4 5 6 7 8 9 10 11 12 13 14 15 16 17 18 19 20 21 22 23 24 25 26 27 28 29 30 31 32 33 34 35 36 37 38 39 40 41 42 43 44 45 46 47 48 49 50

000
ASUS42 KCHS 232112
RWRCHS

REGIONAL WEATHER ROUNDUP
NATIONAL WEATHER SERVICE CHARLESTON SC
500 PM EDT SAT MAY 23 2015

NOTE: "FAIR" INDICATES FEW OR NO CLOUDS BELOW 12,000 FEET WITH NO
SIGNIFICANT WEATHER AND/OR OBSTRUCTIONS TO VISIBILITY.

NOT ALL STATIONS ARE QUALITY CONTROLLED BY THE NATIONAL
WEATHER SERVICE. USE DATA WITH CAUTION...ESPECIALLY
DEWPOINT OBSERVATIONS.

SCZ027-030-031-034>040-042>050-232200-
...SOUTHEAST SOUTH CAROLINA...

CITY           SKY/WX    TMP DP  RH WIND       PRES   REMARKS
N CHARLESTON   MOSUNNY   78  58  49 E13       30.35F
WATERFRONT PAR   N/A     76  63  63 E13       30.32F
MOUNT PLEASANT LGT RAIN  77  61  57 NE6       30.35F
JOHNS ISLAND   PTCLDY    75  63  64 NE16      30.35F
PINOPOLIS        N/A     81  54  39 E9        30.28R
MONCKS CORNER  FAIR      81  52  36 E8        30.34S
SUMMERVILLE    FAIR      82  57  42 E7G16     30.34F
BEAUFORT MCAS  MOSUNNY   79  62  56 SE12G20   30.33F
BEAUFORT ARPT  FAIR      79  61  53 E12       30.33F
HILTON HEAD IS MOSUNNY   77  64  65 NE12G17   30.34F
WALTERBORO     CLEAR     81  55  41 E12       30.33F
ALLENDALE      FAIR      82  48  30 E5G15     30.31F

...SOUTHERN MIDLANDS AND PEE DEE...

CITY           SKY/WX    TMP DP  RH WIND       PRES   REMARKS
GEORGETOWN     NOT AVBL
KINGSTREE      NOT AVBL
ORANGEBURG     SUNNY     81  45  28 E8        30.34F
BARNWELL       FAIR      82  45  26 E9        30.33F
AIKEN          FAIR      82  39  21 NE8       30.36F
MANNING        FAIR      81  41  24 E7        30.34F
COLUMBIA       SUNNY     84  43  23 SE8       30.33F
SUMTER         SUNNY     83  43  23 VRB6      30.32F
FLORENCE       SUNNY     82  43  25 VRB7G17   30.35F
MYRTLE BEACH   SUNNY     79  57  47 SE12G18   30.39F
N MYRTLE BEACH SUNNY     77  56  48 E8        30.37F

$$

GAZ063-065-086>088-099>101-113>116-118-119-134>141-150-232200-
...SOUTHEAST GEORGIA...

CITY           SKY/WX    TMP DP  RH WIND       PRES   REMARKS
SAVANNAH ARPT  PTSUNNY   81  60  48 E9G17     30.32F
HUNTER AAF     MOSUNNY   80  63  56 E10G20    30.30F
FORT STEWART   MOSUNNY   82  63  52 E6        30.29F
STATESBORO     MOSUNNY   83  61  46 SE8       30.31F
SYLVANIA       CLEAR     84  57  38 SE6       30.32F
CLAXTON        MOCLDY    81  59  47 E7        30.30F

...CSRA...CENTRAL AND FAR SOUTHEAST GEORGIA...

CITY           SKY/WX    TMP DP  RH WIND       PRES   REMARKS
THOMSON        SUNNY     85  50  30 NE9       30.35F
AUGUSTA-BUSH   SUNNY     85  47  26 SE6       30.31F
AUGUSTA-DANIEL SUNNY     85  43  22 E7        30.32F
SWAINSBORO     FAIR      86  50  28 E9        30.31F
VIDALIA        MOSUNNY   84  54  34 SE5       30.30S
EASTMAN        FAIR      86  50  29 E6        30.31F
HAZLEHURST     FAIR      85  56  37 E5        30.28S
ALMA           PTSUNNY   82  59  45 E8        30.28F
WAYCROSS       MOSUNNY   83  65  54 E9        30.28S
JESUP          FAIR      84  66  54 E12       30.30S
BAXLEY         FAIR      82  61  47 E3        30.28F
BRUNSWICK      CLOUDY    77  64  65 NE14G20   30.31F
SAINT SIMONS   NOT AVBL

$$

SCZ027-028-034-036>038-045-046-048>050-GAZ119-141-232200-
...LAKE AND SUPPLEMENTAL COASTAL OBSERVATIONS...

STATION/POSITION TIME  TEMP    WIND        PRES    WAVE   SWELL
                       AIR SEA DIR/SP/G            HT/PER HT/PER/DIR
                 (UTC) (F)     (DEG/KT/KT) (MB)    (FT/S) (FT/S/D)
UPR LAKE MARION  NOT AVBL
WINYAH BAY       NOT AVBL
LAKE MURRAY      2000   80      50/  2/ 11 1026.8F
ACE BASIN NERRS  NOT AVBL
FORT PULASKI     2000   74 78   40/ 16/ 19 1027.8F
SAPELO ISLAND    2000   78      50/ 15     1026.0F

$$

ANZ835-935-AMZ111-154-330-350-352-354-370-450-454-472-232200-
...C-MAN AND BUOY OBSERVATIONS...

STATION/POSITION TIME  TEMP    WIND        PRES    WAVE   SWELL
                       AIR SEA DIR/SP/G            HT/PER HT/PER/DIR
                 (UTC) (F)     (DEG/KT/KT) (MB)    (FT/S) (FT/S/D)
BUOY 41004       2050   75 76   80/ 16/ 19 1026.9S   4/ 5   2/ 9
BUOY 41008       2050   74 76   50/ 17/ 19 1026.1F   5/ 6
FOLLY BEACH CMAN 2100   74      60/ 16/ 18 1027.7F
CAPERS NEARSHORE 2008   74      70/ 14/ 19 1028.2F
FRIPP NEARSHORE  2000   74      70/ 17/ 19 1026.6F


STATION/POSITION TIME  TEMP    WIND        PRES    WAVE   SWELL
                       AIR SEA DIR/SP/G            HT/PER HT/PER/DIR
                 (UTC) (F)     (DEG/KT/KT) (MB)    (FT/S) (FT/S/D)
5E ST. MARYS GA  2021      78                N/A     5/ 5
FRYING PAN BUOY  2050   74 74   70/ 14/ 17 1028.6F   4/ 5   2/ 90/ 8
BUOY 41025       2050   69 77   30/ 16/ 17 1029.2F   3/ 9   2/ 50/ 9
CAPE LOOKOUT NC  2100   70      70/ 15/ 16 1028.8F
BUOY 41002       2050   72 75   60/ 19/ 23 1026.7S   6/ 5   2/ 80/10
BUOY 41010       2020   79 81   60/ 17/ 21 1023.3F
ST AUGUSTINE FL  2100   77 77   20/ 10/ 11 1025.3F


$$



USA.gov is the U.S. government's official web portal to all federal, state and local government web resources and services.